SCP
2 2 3 3 4 5 5 5 5 5 5 4 4 3 3 3 3 3 3 2 2 2 2 2 2 2 1 2 2 2 2 1 1 1 2 2 2 2 2 2 2 2 2
2 3 3 3 5 5 5 5 5 5 5 4 4 4 4 4 4 3 3 3 3 3 3 3 3 2 2 2 3 3 2 2 2 2 2 2 2 2 2 2 2 2 2
3 3 4 4 5 6 5 5 5 6 6 5 4 4 4 4 4 4 4 4 5 4 4 4 4 3 3 4 4 4 4 4 3 3 3 3 3 3 2 2 2 2 2
4 4 5 6 6 5 5 5 6 7 7 7 6 5 5 5 4 4 4 6 6 6 5 5 5 5 5 5 6 7 8 7 6 5 5 5 5 4 3 3 3 3 3
5 6 7 7 7 6 5 6 7 8 8 8 8 7 6 6 4 4 5 7 7 6 6 5 6 7 7 8 9 11 12 11 8 7 7 6 6 5 5 4 4 4 4
8 9 9 8 7 7 7 7 7 7 7 7 7 7 7 7 6 5 5 7 7 7 6 6 7 8 9 10 12 13 13 11 9 8 7 7 7 7 6 6 6 6 6
10 10 8 6 6 6 6 6 6 6 6 6 6 6 7 7 6 6 6 6 6 6 7 8 9 11 12 12 12 11 10 9 9 8 7 8 7 7 7 7 7 6 5
10 9 7 5 5 5 6 6 6 6 6 6 6 6 6 6 6 6 6 6 6 6 7 8 10 12 13 11 10 8 7 6 6 6 7 7 7 6 6 6 5 4 4
10 7 6 6 6 6 6 7 8 7 6 7 8 7 6 6 6 7 8 9 8 7 6 6 8 9 9 8 6 5 5 5 5 5 6 6 5 5 4 4 3 3 2
9 6 5 7 8 6 7 8 9 8 7 7 7 7 7 7 7 9 10 10 9 7 6 5 5 5 5 4 4 4 4 4 4 4 4 4 4 4 4 3 3 3 2
7 6 6 7 8 6 7 9 9 8 8 7 6 7 7 7 8 9 9 8 7 7 6 5 5 4 4 4 4 3 3 3 3 3 3 3 3 3 3 3 3 3 2
6 6 6 7 7 7 8 9 9 8 8 7 7 7 8 7 7 7 6 6 7 7 6 5 5 5 5 5 5 3 3 2 2 3 3 3 3 3 3 2 2 2 2
6 6 6 7 7 8 9 9 9 8 8 8 8 9 8 8 7 6 6 7 8 9 8 6 5 5 5 6 5 4 3 2 2 2 3 3 2 2 2 2 2 2 2
7 6 6 6 6 7 9 10 10 10 11 10 10 9 9 9 9 8 8 8 9 9 9 7 6 6 6 6 6 5 4 3 3 3 3 3 3 2 2 2 2 3 2
7 7 7 6 6 7 8 11 12 13 13 12 11 10 10 10 9 10 10 10 10 10 10 8 7 6 6 5 6 5 5 4 4 3 3 3 3 2 2 2 2 3 2
7 7 7 7 6 7 8 10 12 14 14 13 12 11 11 9 8 9 11 12 13 13 12 10 8 6 5 5 5 5 5 4 4 3 3 3 3 3 2 2 2 2 2
8 8 8 7 7 7 8 9 12 14 14 13 11 10 10 9 7 7 9 11 13 15 14 13 10 8 6 4 4 4 4 5 4 4 3 4 4 3 3 2 2 1 1
9 9 7 7 7 7 8 9 11 12 13 12 10 9 9 8 7 7 8 10 11 13 14 14 12 9 7 4 2 2 3 4 4 4 4 4 5 4 4 3 2 2 2
10 9 7 7 8 8 9 9 9 10 10 10 9 9 9 8 8 9 9 10 10 10 11 12 12 10 7 4 2 1 2 3 3 4 3 3 4 4 4 4 4 3 3
10 9 8 8 8 9 10 9 8 8 8 8 8 8 9 9 9 10 11 11 10 9 9 10 9 8 6 4 2 1 1 2 2 3 3 2 3 3 3 3 4 4 3
9 10 10 9 10 10 10 9 8 7 7 7 8 8 9 9 9 10 11 10 9 8 7 7 7 6 5 4 2 1 1 1 2 2 2 2 1 1 1 2 4 4 3
10 11 12 13 14 13 11 10 9 9 8 8 9 9 8 7 7 8 9 8 7 6 6 5 5 4 4 4 2 1 1 1 2 2 2 1 1 0 0 1 2 2 2
13 15 17 18 17 14 11 9 10 10 10 9 9 8 6 5 5 7 7 7 7 6 5 5 5 4 5 5 3 1 0 1 1 2 1 1 0 0 0 1 1 1 1
18 19 20 18 15 11 8 8 8 9 9 8 7 6 5 5 5 6 6 6 6 5 5 5 5 5 5 6 4 2 1 1 1 1 1 1 0 0 1 1 1 1 2
18 17 15 13 10 8 6 6 6 7 7 6 5 5 4 4 4 5 5 4 4 4 4 4 4 4 4 4 3 3 2 2 1 1 1 1 1 1 1 2 2 3 3
14 12 10 8 8 6 5 5 6 6 6 5 5 4 4 4 4 4 4 3 3 2 2 3 3 3 3 2 2 3 3 2 1 1 1 2 2 2 2 3 3 3 4
Wind_Speed
11 11 10 12 12 10 9 7 6 5 3 2 2 3 2 2 2 2 2 1 1 1 1 1 1 0 0 0 0 0 0 0 0 0 1 1 1 1 1 2 2 2 2
11 11 11 11 12 11 9 8 7 6 4 3 2 2 2 2 2 2 2 2 1 0 1 1 0 0 0 1 0 1 1 1 1 1 0 0 1 1 1 1 2 2 2
13 11 10 11 12 11 10 8 7 6 5 4 3 2 2 1 2 2 2 1 1 1 0 1 0 0 0 1 1 1 0 1 0 1 0 0 0 1 1 0 1 2 2
13 12 11 11 11 11 10 8 8 7 6 4 3 3 3 2 2 2 3 2 1 1 1 1 1 0 1 1 0 1 0 0 1 0 0 1 1 0 1 1 0 1 2
13 13 13 11 11 11 11 9 7 6 6 4 4 2 2 2 2 2 2 2 2 1 1 2 1 1 1 1 0 1 0 0 0 1 0 0 1 1 1 1 1 1 1
13 13 13 11 10 10 10 10 8 6 5 5 4 3 2 1 2 2 2 2 2 2 2 2 1 1 1 1 1 1 1 0 1 1 1 0 0 1 1 1 1 1 1
13 12 12 12 10 10 10 10 9 7 6 5 4 4 3 3 2 2 1 1 1 1 1 2 2 1 1 2 1 1 1 1 1 1 1 1 0 0 0 0 1 1 1
11 11 11 11 10 10 10 10 9 7 6 6 4 4 3 3 2 2 1 1 0 1 2 2 1 1 1 1 1 1 1 1 1 2 1 1 1 0 0 0 1 1 1
10 11 11 10 10 9 9 9 9 8 7 6 5 4 3 2 2 2 2 1 0 1 2 2 1 1 0 0 0 0 1 1 1 1 1 1 1 1 1 1 1 1 1
9 9 10 10 9 9 9 9 8 7 7 6 5 4 3 2 2 1 1 1 1 1 2 1 1 1 0 0 1 1 1 1 1 1 0 1 2 1 1 1 1 1 1
7 7 9 9 8 8 9 9 8 7 6 5 4 3 4 3 2 2 1 1 2 1 1 1 1 1 0 1 1 2 1 1 1 1 0 0 1 1 2 1 1 0 0
6 7 8 8 8 8 8 8 8 8 6 5 5 4 3 3 3 2 2 2 1 2 1 1 1 1 1 1 1 1 1 1 1 1 0 1 1 1 1 2 1 1 0
6 7 7 6 6 6 7 7 7 8 7 6 5 5 4 4 3 3 3 2 2 1 1 1 1 1 1 1 0 1 1 1 1 1 1 1 1 1 1 1 1 1 1
6 6 7 5 5 5 5 5 5 6 6 6 6 5 4 3 3 2 3 3 2 2 2 2 2 2 1 1 1 1 1 1 1 1 1 1 2 2 2 1 1 1 1
6 6 6 6 6 5 5 5 4 4 4 5 5 5 4 3 3 3 3 3 3 3 2 2 2 2 2 2 1 1 1 0 1 1 2 1 1 1 1 1 1 1 1
5 6 7 6 6 5 4 4 4 4 4 4 4 4 4 3 3 3 3 3 2 2 2 2 2 2 2 1 2 1 1 1 1 2 2 2 2 2 2 2 1 1 1
6 6 6 6 6 6 5 4 4 3 4 3 3 3 3 3 3 3 3 3 3 2 2 2 2 2 2 2 2 3 2 2 2 2 3 3 3 3 2 3 4 3 3
6 6 4 4 5 5 5 4 4 3 3 3 3 2 2 2 2 2 2 2 2 2 3 3 3 3 3 3 3 4 4 3 3 3 3 4 3 3 2 3 3 3 3
4 5 4 4 4 4 4 3 3 3 3 3 2 2 1 1 2 2 2 1 2 3 3 3 3 3 3 5 4 4 3 3 4 3 3 3 3 3 4 3 3 3 3
5 5 4 4 5 4 3 3 3 3 2 2 2 1 2 2 2 1 2 1 2 3 3 2 2 3 3 5 6 5 3 3 3 2 2 2 3 4 5 4 3 4 4
5 4 4 4 4 3 3 2 2 1 1 1 1 1 1 2 2 2 2 2 3 3 3 3 3 3 3 4 6 6 3 3 3 2 2 2 3 4 5 5 4 5 4
5 4 4 4 4 3 3 2 1 1 1 0 0 0 1 2 2 1 2 2 3 3 4 4 3 2 3 3 5 6 5 4 3 2 1 1 2 4 5 5 5 6 4
4 4 4 4 3 3 2 2 1 1 0 0 0 1 1 1 2 2 3 3 3 4 3 3 2 2 1 1 3 4 4 4 2 2 2 2 3 4 5 7 7 5 4
3 3 3 3 3 2 2 2 1 1 0 1 1 2 2 2 2 2 2 3 3 3 2 2 2 2 1 0 1 1 2 3 2 2 2 3 4 4 4 4 4 4 4
3 3 2 2 2 2 2 2 1 1 1 2 2 3 3 2 1 1 2 2 1 2 2 2 2 1 1 1 1 1 1 1 1 2 2 2 2 3 3 3 4 4 4
3 2 2 2 2 2 1 1 0 0 1 2 2 2 2 2 1 1 1 1 0 0 1 2 2 1 2 2 1 1 1 1 1 1 3 3 3 3 3 3 4 4 4
Wind_Direction
154 151 153 147 143 142 144 147 141 142 149 146 162 158 164 154 134 136 128 128 134 139 131 1 116 6 77 56 61 106 118 247 128 82 356 300 215 161 141 138 152 165 161
151 153 157 153 151 150 150 150 150 152 159 157 170 166 158 152 139 126 125 135 154 146 137 104 349 44 67 43 50 74 29 328 39 84 324 327 356 16 139 171 165 162 140
158 158 158 155 152 155 160 160 157 155 163 164 168 150 141 143 139 140 132 153 146 136 35 105 49 3 150 121 150 113 172 262 312 69 62 66 48 332 319 250 139 150 149
158 158 159 157 155 157 157 154 155 157 159 172 174 175 162 161 158 148 143 148 149 160 138 117 103 49 45 91 209 148 207 228 312 357 9 71 110 161 318 321 22 156 171
158 156 157 157 158 157 156 153 150 156 158 169 165 175 166 167 145 141 137 144 143 160 167 145 148 170 151 157 160 102 150 162 291 298 274 229 222 224 194 255 267 270 208
156 155 155 154 157 155 153 150 147 152 160 169 166 164 174 173 148 151 156 173 162 164 161 136 152 172 175 181 147 187 156 185 287 299 307 277 232 218 220 235 240 241 255
154 151 152 156 159 159 155 151 152 158 163 169 172 167 187 196 185 182 188 199 163 145 144 134 155 176 174 166 155 176 185 202 247 256 285 295 288 317 344 346 280 260 243
149 150 154 157 161 161 156 152 154 160 165 169 168 166 184 198 191 192 201 206 176 125 128 120 131 166 183 177 172 196 191 197 258 267 271 287 305 287 246 204 258 281 278
149 151 154 157 159 159 154 154 156 164 170 173 168 176 182 197 188 185 197 195 116 142 111 125 139 86 129 233 170 235 248 211 255 273 275 286 294 273 253 227 201 211 265
147 151 155 158 161 160 154 153 155 163 170 170 175 179 181 183 189 189 148 122 102 71 120 130 116 106 8 243 225 242 230 212 250 251 319 323 327 332 299 227 223 229 233
146 147 150 152 153 154 153 153 154 160 164 166 167 171 170 173 178 178 164 154 144 136 134 155 164 175 170 303 253 232 202 215 238 277 195 264 317 319 326 327 327 268 234
138 140 142 142 152 158 156 156 160 163 165 160 156 155 151 169 177 175 170 163 159 166 179 186 197 212 203 220 273 273 230 205 202 214 237 273 284 284 301 322 323 300 227
126 132 130 137 145 144 144 153 163 164 165 160 161 162 169 172 179 178 172 176 179 189 190 185 204 220 234 199 219 318 300 260 227 189 194 215 258 275 276 300 305 314 315
127 129 125 130 127 130 136 148 161 160 163 161 166 167 173 173 172 174 171 177 184 196 200 198 207 207 217 196 220 221 269 265 245 220 205 220 224 241 249 264 273 289 312
136 131 127 128 121 126 133 141 150 145 151 155 159 161 165 169 170 172 175 180 194 199 197 207 217 216 218 220 202 219 237 243 249 238 212 216 209 183 217 260 289 279 262
141 136 132 128 127 130 133 128 131 139 144 149 149 151 161 168 173 181 183 187 194 205 203 216 228 239 247 176 160 199 255 233 236 244 229 214 208 199 198 206 243 231 248
131 132 135 145 145 145 133 131 126 127 130 133 137 149 160 175 186 200 193 198 201 211 220 222 224 227 223 210 198 212 223 246 247 251 243 245 233 204 201 210 224 229 230
120 126 132 133 132 138 144 147 142 134 132 132 137 151 175 181 185 191 203 215 216 219 227 229 223 216 222 214 214 229 220 240 243 236 237 234 239 238 212 225 226 234 236
104 115 123 119 112 116 130 136 143 138 139 144 155 166 169 194 198 194 205 215 227 236 237 230 222 217 221 217 217 223 230 237 245 238 245 231 216 214 212 220 231 238 244
108 112 113 111 109 111 123 135 144 142 150 149 161 162 181 217 227 222 232 239 251 255 250 246 243 233 231 217 209 213 240 241 241 238 228 206 205 215 206 216 231 241 245
92 99 104 103 98 106 116 124 121 125 117 107 109 148 200 242 234 234 246 250 255 259 254 253 252 242 232 218 205 209 235 252 247 244 226 200 202 214 213 217 228 235 247
95 92 88 87 84 85 100 112 113 84 84 110 183 216 234 265 270 244 249 255 258 258 253 249 249 246 230 215 203 208 227 263 269 258 218 191 209 219 219 218 232 242 247
95 91 93 90 88 94 111 126 102 89 67 38 288 258 253 253 262 256 250 246 246 249 249 246 247 253 245 161 173 200 229 246 254 310 346 287 253 240 227 223 230 234 233
87 90 100 100 97 96 93 87 94 107 129 246 258 258 243 236 244 246 252 253 258 260 265 270 261 244 235 145 163 220 228 231 235 272 297 276 255 252 248 237 228 229 235
88 79 79 90 87 80 89 87 76 97 258 253 256 260 262 253 243 252 289 274 315 290 262 272 274 274 252 214 224 219 227 235 238 257 255 258 252 240 233 229 228 230 233
80 76 76 78 91 99 90 73 79 54 290 280 274 275 271 263 250 249 277 22 202 153 178 222 232 235 188 183 192 197 195 232 221 229 245 245 244 242 241 242 238 233 233